GFSCGP_250_spd_096.txt.gz
Wind_Speed
39 41 40 45 51 55 60 65 68 72 77 84 77 80 82 90 88 81 82 77 80 76 75 67 65 65 65 48 45 58 51 54 54 55 55 51 60 56 56 59 58 59 58 56
34 37 42 45 46 47 53 57 59 63 69 73 80 75 86 85 90 88 82 78 73 75 76 70 68 63 61 65 51 65 67 66 68 64 59 48 52 51 59 60 68 67 63 65
33 31 37 42 45 44 45 44 50 54 60 64 68 77 76 84 86 83 82 81 79 79 74 68 66 64 64 66 64 69 66 66 70 69 65 69 68 71 66 65 70 71 74 78
36 34 33 34 36 36 38 38 39 41 52 57 64 66 75 77 80 84 78 78 69 78 79 73 73 71 67 66 67 63 60 61 64 61 65 67 67 68 72 75 80 81 83 84
41 35 31 28 27 25 26 26 29 33 40 53 58 54 61 75 72 71 76 78 79 70 61 68 71 71 69 67 65 63 62 62 63 63 64 68 73 79 81 81 81 82 84 88
49 41 33 27 23 19 16 14 14 21 28 39 48 47 58 66 72 66 61 65 70 77 76 65 64 67 64 65 68 67 66 66 65 64 69 72 76 79 81 84 87 86 85 85
53 44 34 28 23 19 14 6 5 16 17 27 33 39 47 54 66 65 62 47 51 61 71 69 66 62 65 63 62 66 66 68 66 69 73 74 75 79 83 84 81 82 84 86
55 47 38 29 24 19 11 6 2 7 14 22 29 35 39 40 54 65 60 61 54 53 56 62 64 62 60 62 63 62 60 63 66 69 73 77 78 79 80 84 86 89 92 95
54 51 38 31 22 15 8 11 21 26 16 24 30 32 25 29 43 48 62 59 44 48 53 52 54 60 59 59 62 63 63 64 65 70 72 74 75 80 86 87 90 90 93 94
59 53 43 34 27 22 9 24 24 22 13 23 29 31 39 43 46 56 62 58 56 55 53 50 50 55 61 60 63 65 67 67 69 73 77 80 83 83 85 87 89 89 89 90
63 50 44 35 26 18 12 14 19 16 5 10 27 31 36 41 47 48 48 52 50 50 53 53 50 51 59 60 63 68 69 68 67 67 69 73 77 81 85 88 89 90 90 94
67 58 46 36 27 21 9 7 19 16 11 6 23 30 37 43 41 36 42 42 47 49 48 50 51 50 55 60 61 61 63 65 67 69 72 74 76 79 81 84 88 92 96 98
69 61 50 39 31 21 16 4 13 21 19 15 19 15 19 24 28 37 38 44 47 49 49 50 52 52 53 57 60 63 64 66 67 68 71 74 77 82 85 89 92 95 98 98
72 62 52 42 33 24 17 11 8 11 15 11 19 22 16 19 25 29 38 40 42 44 46 48 51 52 52 54 57 61 62 65 68 71 75 80 84 86 89 91 93 92 91 91
71 66 55 46 37 28 20 13 13 10 10 9 7 10 12 15 20 26 32 37 40 43 44 45 46 48 51 54 58 61 64 68 72 76 80 82 84 86 85 85 84 85 88 92
69 67 61 48 41 32 22 15 13 17 15 14 13 13 15 17 20 22 27 32 36 38 41 43 45 47 49 52 55 59 64 67 69 72 76 77 76 75 76 79 84 88 93 98
68 65 61 54 44 34 27 18 12 13 20 23 22 22 22 23 24 25 28 31 33 36 38 40 42 44 46 49 52 55 59 62 66 65 64 65 68 73 79 85 90 97 102 106
67 63 58 54 48 40 30 23 16 11 13 19 26 28 28 27 27 27 28 31 32 34 35 37 40 42 44 47 51 50 51 53 53 56 60 66 72 78 85 92 98 104 107 110
65 62 59 55 52 41 34 26 19 16 12 12 15 19 22 26 31 33 33 33 33 34 36 38 38 38 37 36 39 42 45 47 53 57 64 70 77 83 91 98 103 106 107 106
62 61 59 58 55 47 35 26 21 17 15 11 11 10 12 14 13 14 16 18 19 20 21 22 25 28 33 36 36 40 45 49 56 63 70 77 84 90 98 104 103 101 90 82
64 58 58 59 59 52 40 31 23 17 15 13 9 9 10 8 6 6 7 10 14 18 22 25 29 32 29 33 37 41 48 55 62 70 77 84 90 96 100 98 89 75 69 65
60 57 56 58 61 55 48 34 27 19 16 13 11 9 10 11 10 11 13 17 20 22 26 27 26 27 31 35 40 46 54 61 68 75 83 89 94 95 91 82 72 66 61 55
57 56 56 58 58 57 52 43 30 24 20 18 17 17 16 15 15 16 17 20 21 24 23 22 25 31 35 39 45 51 58 66 73 80 84 89 90 88 78 68 62 59 54 49
58 55 55 60 55 54 54 48 36 29 26 24 22 21 21 19 17 19 20 23 23 23 20 23 28 34 37 43 50 57 63 70 76 81 83 84 82 76 66 58 53 49 44 39
55 53 55 61 56 55 53 50 41 31 29 31 28 26 25 22 20 22 22 24 26 24 22 25 30 35 40 46 53 61 67 74 78 79 81 80 73 63 56 51 46 42 38 36
53 52 55 60 57 55 54 48 44 38 29 33 33 30 28 24 22 22 24 27 26 23 24 29 34 37 43 49 57 63 68 74 77 78 77 71 61 53 47 45 42 40 37 36

GFSCGP_250_spd_099.txt.gz
Wind_Speed
29 30 31 32 35 42 50 54 58 67 74 73 72 73 77 80 78 79 83 83 79 79 82 77 74 67 59 53 51 62 53 47 50 48 54 54 53 57 59 60 60 61 62 59
38 33 28 29 33 35 37 44 52 56 62 62 69 67 75 80 80 77 80 80 74 72 76 73 70 65 63 61 60 59 58 46 50 50 51 52 58 64 62 66 68 67 68 58
44 40 33 28 27 29 31 31 34 42 55 56 58 59 71 77 83 80 78 80 75 68 68 64 64 68 68 67 67 68 64 61 59 55 49 61 66 66 64 69 70 72 71 76
49 39 32 27 23 22 22 23 28 31 41 48 51 48 59 70 78 82 80 78 77 72 65 54 54 63 74 75 72 71 70 69 67 68 71 71 68 64 68 67 70 71 74 77
55 50 40 30 26 25 25 21 23 24 28 35 47 43 58 63 69 80 82 75 74 71 70 69 67 57 57 59 67 67 62 66 68 69 70 67 66 70 74 74 70 72 73 78
65 57 47 40 37 35 25 22 17 14 17 23 32 39 52 54 58 70 79 72 74 71 67 62 65 67 61 60 55 51 64 65 68 72 67 68 73 73 79 84 78 79 79 80
72 58 52 42 39 27 21 16 14 11 10 14 17 25 34 38 39 48 70 74 68 73 70 68 63 65 64 59 62 66 69 68 65 65 70 73 78 81 82 82 80 78 80 84
78 66 53 40 34 24 14 11 12 8 4 8 9 15 22 25 30 38 59 69 59 63 65 68 65 66 63 60 63 66 63 64 64 73 77 74 75 77 80 81 81 82 84 88
80 73 58 46 32 29 28 18 16 13 10 5 9 15 20 26 31 28 42 57 53 52 54 56 60 64 68 68 59 58 65 65 62 64 69 74 70 70 75 81 85 85 86 88
79 77 66 50 39 27 23 24 13 4 4 10 17 15 20 29 30 35 29 50 46 42 46 50 53 52 53 62 73 74 70 65 69 74 76 77 81 84 83 82 83 85 87 90
78 79 72 58 47 34 26 19 22 18 1 7 21 18 15 22 21 33 37 43 46 43 51 52 54 55 53 50 51 55 61 70 74 75 77 79 79 80 84 87 87 89 89 90
74 78 77 68 52 41 29 20 20 18 11 4 15 23 23 18 26 28 29 49 56 52 46 48 47 48 51 52 53 54 55 57 65 75 76 79 84 84 85 84 86 88 89 91
74 75 79 74 63 45 39 25 17 18 19 15 7 7 13 20 29 28 26 29 45 61 62 59 58 55 52 53 54 55 57 57 58 64 75 78 79 80 81 84 86 88 93 98
70 73 74 75 69 56 39 31 23 14 12 12 15 13 6 9 16 19 22 26 30 39 45 55 56 54 52 51 51 52 55 58 60 62 66 70 74 78 80 84 89 93 94 94
67 70 73 73 72 67 51 37 28 20 15 9 8 6 4 8 14 14 16 21 28 31 38 41 43 46 49 50 51 53 55 56 59 61 64 68 72 76 79 81 83 84 83 84
63 66 70 72 72 68 64 45 33 25 17 15 12 10 8 8 11 13 16 19 25 30 36 39 41 44 46 48 48 49 49 51 54 56 59 63 67 71 72 71 73 77 84 89
60 62 68 70 70 69 66 58 41 30 23 20 15 17 16 15 14 15 17 20 24 28 32 35 37 38 39 40 41 43 46 48 52 56 59 60 59 61 65 71 78 84 90 96
60 59 62 64 68 66 64 63 51 36 27 20 19 17 19 23 21 21 21 21 23 24 25 27 30 33 35 37 39 42 45 48 49 47 50 53 58 65 71 77 84 90 94 100
61 57 57 59 65 63 65 64 54 43 33 25 20 18 16 17 21 26 28 27 26 27 28 30 31 33 36 38 38 36 36 39 40 43 49 57 64 70 77 83 87 92 99 102
61 56 52 58 60 62 63 64 59 49 37 28 22 18 15 10 13 12 14 17 19 21 22 23 22 22 22 25 30 33 32 37 43 50 57 63 70 73 79 86 92 97 100 98
60 54 51 55 57 59 60 61 59 52 43 31 25 19 17 13 9 7 5 5 7 12 15 18 21 24 26 28 26 31 37 41 49 56 63 70 73 79 85 90 95 96 93 83
58 59 51 51 56 59 58 58 59 55 46 37 27 23 18 13 10 9 9 10 15 18 21 24 26 26 21 23 29 36 41 47 54 62 70 72 76 83 89 93 92 88 78 65
53 53 50 50 56 62 56 56 57 54 48 40 32 25 26 22 18 16 15 17 18 20 21 24 24 22 22 26 33 39 46 52 59 64 66 76 81 87 91 88 82 72 59 54
53 53 54 52 54 63 52 55 55 54 48 44 36 31 26 28 25 22 20 20 19 22 21 24 23 23 26 32 37 42 49 55 58 64 73 79 83 85 84 78 67 57 47 47
58 56 61 55 45 63 52 53 53 53 49 45 43 35 30 28 30 27 25 23 20 22 24 24 22 23 29 36 40 45 51 55 58 69 77 79 82 82 78 65 54 46 43 43
60 59 61 49 60 57 51 49 52 51 50 47 44 37 32 27 31 31 28 25 22 24 21 16 19 24 30 35 41 46 52 56 61 71 81 79 81 78 70 56 45 39 41 42

GFSCGP_250_spd_102.txt.gz
Wind_Speed
41 32 23 23 23 23 30 39 47 51 60 59 63 68 80 86 82 80 82 85 91 95 89 87 77 75 71 67 54 52 51 47 48 53 58 58 54 54 52 53 59 53 56 63
52 39 25 18 16 17 21 27 35 47 53 52 56 60 71 80 85 80 76 75 81 86 93 93 85 82 77 77 69 61 58 52 49 40 52 51 57 60 60 60 63 62 63 63
63 49 31 21 17 14 16 20 24 31 40 50 53 50 63 73 77 80 78 75 72 79 75 73 80 80 79 79 74 69 71 64 56 56 51 54 58 56 58 60 60 66 68 69
76 59 52 41 35 30 26 21 17 22 29 36 44 50 57 67 74 77 76 74 68 68 71 68 62 60 70 74 79 75 69 65 60 59 60 63 65 63 65 65 75 82 75 77
85 75 64 53 45 38 39 33 29 23 21 24 32 36 46 51 62 68 71 68 68 62 63 62 56 64 64 51 54 67 71 59 57 63 61 64 64 71 73 75 78 84 87 86
84 83 73 58 52 41 41 41 35 28 23 21 17 26 33 39 47 52 61 65 65 65 62 57 50 56 64 56 52 57 54 56 58 68 62 67 67 65 69 73 78 83 88 88
82 82 80 68 57 49 36 37 33 32 27 19 14 10 18 29 37 45 54 59 60 65 59 57 55 56 59 59 53 44 41 41 43 46 50 55 61 64 67 76 83 83 84 85
78 78 79 74 60 49 41 29 33 35 26 21 13 5 6 18 27 38 44 45 50 58 61 61 60 57 51 56 61 59 54 51 42 47 51 63 63 70 74 79 81 86 90 94
76 79 77 77 72 56 48 39 32 32 26 20 14 12 8 14 20 28 34 36 45 51 48 53 55 53 52 55 55 57 62 57 61 65 65 69 75 68 79 88 94 97 96 94
75 76 80 78 75 68 52 44 34 28 19 26 14 17 14 20 23 30 29 30 39 53 56 55 55 51 54 55 61 64 67 69 70 74 78 82 77 87 90 92 88 89 90 93
73 75 77 78 79 74 62 49 39 26 20 18 15 12 13 15 19 24 29 28 25 48 58 57 61 60 63 66 70 65 60 68 73 73 75 77 80 84 87 90 90 95 98 101
71 75 74 75 77 76 69 55 44 31 16 6 5 10 15 14 19 25 39 41 47 45 53 51 55 57 62 66 70 77 80 75 75 75 77 83 87 87 90 96 99 102 105 106
67 74 75 70 75 74 73 65 49 37 23 9 6 8 6 11 13 22 33 47 41 42 48 52 55 57 56 58 59 63 68 73 72 72 73 76 79 81 83 85 86 86 88 93
63 70 71 69 72 73 73 70 59 45 32 20 12 1 8 15 17 24 33 33 37 43 53 56 56 56 55 55 55 55 58 56 60 66 68 70 72 75 77 80 82 83 84 85
59 66 68 66 70 69 70 72 67 56 40 28 18 14 7 9 16 22 34 38 49 49 48 50 53 54 51 54 55 58 62 64 66 66 65 67 70 71 71 71 72 75 77 78
56 62 66 67 66 65 70 73 68 63 52 38 26 14 12 9 5 9 16 26 41 56 56 55 56 58 61 62 63 64 61 61 60 59 61 60 60 61 64 67 67 67 71 76
54 58 63 65 63 63 66 72 66 64 58 46 34 26 14 14 14 12 12 15 20 26 38 45 44 43 45 46 46 48 50 52 52 49 50 53 56 57 55 58 65 71 77 83
51 54 59 60 61 60 64 68 65 62 59 51 40 29 26 17 15 20 18 19 20 22 24 27 30 32 35 37 38 39 39 39 42 45 44 43 46 51 58 64 71 78 83 87
48 51 55 54 60 60 62 65 61 60 56 55 46 35 27 25 19 15 19 23 25 23 23 24 25 26 28 31 34 35 36 32 33 34 38 44 50 57 63 68 75 83 89 94
46 51 50 56 56 63 60 62 58 56 54 54 50 40 29 24 24 16 13 14 16 20 23 25 26 25 25 23 22 24 26 26 30 37 42 49 55 60 64 73 84 89 94 95
46 50 50 53 56 60 59 61 57 53 54 51 51 47 35 24 20 19 14 11 10 10 11 11 13 16 19 21 23 23 23 28 35 40 47 53 58 63 70 79 87 92 91 86
50 49 50 53 57 59 58 59 53 52 49 48 48 47 44 32 23 18 18 16 14 13 13 13 16 18 21 20 20 22 26 33 38 45 50 57 63 68 76 84 92 90 83 77
49 52 54 56 54 59 53 55 49 47 47 46 47 48 47 40 29 24 21 22 22 19 18 18 19 21 20 21 22 25 30 35 41 47 53 59 67 71 76 86 86 80 75 66
54 55 58 62 60 56 55 52 47 45 45 43 46 47 48 45 37 27 28 25 26 24 21 23 22 22 23 20 21 26 32 37 43 48 54 62 68 74 77 81 81 75 71 59
62 60 61 63 60 56 59 54 50 47 44 43 45 47 50 48 43 33 26 29 27 27 25 24 24 23 19 19 22 27 33 39 44 49 59 67 71 77 81 83 80 74 66 55
65 67 64 67 62 57 58 53 49 47 44 44 44 46 50 48 47 37 28 29 28 28 26 25 24 18 18 21 24 29 35 40 46 55 62 72 75 79 84 87 79 71 60 50

GFSCGP_250_spd_105.txt.gz
Wind_Speed
69 50 39 31 29 21 20 24 30 38 40 40 46 54 68 76 74 79 85 87 89 97 94 93 79 74 71 74 63 53 46 48 51 53 52 51 56 47 45 46 55 56 60 59
81 70 51 40 30 23 13 16 18 24 34 39 44 49 57 67 73 74 81 83 83 81 91 92 87 79 77 77 66 64 62 54 51 45 54 52 50 48 49 55 54 59 64 67
84 81 68 52 45 37 30 30 25 18 19 28 38 48 55 63 68 70 72 76 79 76 75 75 91 86 83 79 79 68 64 65 63 61 55 55 61 58 60 60 59 61 67 65
79 83 78 64 51 46 35 32 30 31 31 23 21 38 46 48 57 66 60 63 71 71 69 65 75 88 79 78 76 74 61 57 59 56 57 61 62 60 62 62 64 68 69 67
79 82 80 74 60 50 40 33 32 34 33 33 26 20 37 38 46 56 53 55 59 63 65 66 65 68 80 77 72 72 72 67 58 60 59 63 64 66 68 68 71 76 77 83
74 78 77 77 68 55 46 35 30 31 33 33 31 21 22 26 34 46 49 48 53 57 62 62 63 60 58 65 72 72 63 60 55 61 60 44 52 65 62 69 74 78 78 80
73 76 77 77 77 65 51 38 33 29 30 29 30 22 11 13 21 31 41 42 48 55 56 62 59 53 48 50 56 54 55 61 50 46 46 48 57 52 55 64 75 70 73 72
69 70 74 74 77 72 60 45 33 30 31 33 34 25 16 5 13 22 31 36 42 53 54 54 52 40 44 49 61 51 47 49 34 41 62 65 65 55 67 73 64 68 74 79
66 69 69 73 79 77 72 57 42 34 30 30 28 24 19 10 2 16 25 30 37 46 51 53 46 49 41 46 59 64 48 52 49 48 46 57 63 66 72 70 70 79 76 82
62 65 69 71 76 79 78 71 52 39 32 24 23 24 19 16 4 10 18 27 32 43 54 54 53 52 50 47 42 47 56 59 62 66 66 63 56 66 74 81 80 75 79 85
57 61 63 67 71 75 78 75 64 47 34 29 20 19 16 12 8 7 19 25 29 37 49 53 56 56 54 49 45 52 59 66 69 74 78 80 84 86 88 76 83 89 91 98
54 60 60 62 67 70 73 75 71 61 43 29 24 16 10 8 5 7 16 23 25 34 44 53 51 59 59 62 55 57 62 63 70 75 77 81 85 89 91 92 93 96 102 102
53 61 60 58 62 66 70 73 75 67 56 38 25 21 12 2 3 9 12 20 24 28 37 47 55 57 61 65 70 67 69 70 70 71 73 78 82 84 86 88 92 93 95 100
50 56 57 58 60 63 69 69 70 70 61 48 33 20 16 8 7 14 22 21 27 25 34 44 54 55 56 60 66 68 71 72 74 75 78 78 79 81 85 88 94 99 103 99
51 52 52 55 58 59 64 66 64 66 64 56 44 31 18 12 5 15 30 33 34 36 50 47 52 54 57 60 64 67 71 75 76 78 80 83 88 92 93 91 88 91 94 93
50 49 49 52 56 59 61 62 62 61 61 55 50 40 27 16 10 8 17 38 43 40 43 43 44 50 54 57 60 64 67 69 70 71 74 73 73 77 80 84 84 84 84 82
50 48 48 50 54 57 58 61 59 57 56 53 50 47 38 22 14 12 11 19 36 42 43 44 46 48 51 56 60 63 62 63 62 61 67 70 68 68 70 71 69 67 68 74
47 47 48 51 52 56 62 57 60 55 53 53 50 47 45 35 21 13 16 18 20 31 46 49 52 51 51 52 54 53 53 60 62 60 60 59 58 57 55 54 59 66 72 78
42 44 47 48 55 56 60 58 58 53 51 50 49 46 45 44 35 22 15 16 25 25 25 28 34 46 55 57 57 54 51 48 46 46 46 43 42 45 50 55 62 68 73 81
42 42 44 53 56 59 58 54 59 51 50 50 48 45 43 42 43 33 23 18 14 18 24 27 26 25 27 29 32 35 36 35 33 34 34 36 41 46 52 57 64 72 79 84
42 45 51 55 56 58 58 59 60 55 46 47 46 45 43 43 40 39 31 22 19 14 12 14 16 17 17 19 21 25 28 29 28 28 33 37 42 48 54 60 69 76 81 86
47 52 54 54 55 59 60 63 60 56 45 46 45 44 42 42 43 39 39 29 22 19 16 13 13 14 17 19 22 23 23 24 26 29 33 38 44 50 58 66 74 79 86 93
48 52 56 57 55 60 61 65 62 57 49 43 45 45 41 41 43 43 39 36 27 25 23 21 19 18 18 20 23 23 22 22 25 29 34 40 48 55 63 73 81 85 91 93
53 56 54 55 61 60 60 68 67 62 52 42 44 45 45 39 41 43 44 39 31 25 27 25 23 21 22 22 24 23 20 21 25 30 36 44 53 62 70 77 85 87 95 94
55 57 56 56 62 60 64 68 67 63 52 44 42 44 45 42 39 41 44 43 36 26 25 28 25 23 23 24 22 21 20 21 27 31 41 50 59 67 74 81 85 90 93 90
61 58 61 56 62 64 68 68 69 64 56 49 42 44 44 44 40 40 43 45 41 32 23 25 26 24 22 21 21 20 19 23 28 35 45 53 61 68 77 85 87 91 92 81